Change the Weather History Date:

Sunday, August 4, 2013

  Actual Average Record
Temperature  
Mean Temperature 63 °F 62 °F  
Max Temperature 82 °F 80 °F 98 °F (1961)
Min Temperature 43 °F 43 °F 30 °F (1989)
Degree Days  
Heating Degree Days 2 4  
Month to date heating degree days 22 16  
Since 1 June heating degree days 302 533  
Since 1 July heating degree days 39 166  
Cooling Degree Days 0 1  
Month to date cooling degree days 0 4  
Year to date cooling degree days 123 20  
Since 1 June cooling degree days 123 20  
Growing Degree Days 12 (Base 50)    
Moisture  
Dew Point 35 °F    
Average Humidity 48    
Maximum Humidity 83    
Minimum Humidity 13    
Precipitation  
Precipitation 0.00 in 0.02 in 0.63 in (1950)
Month to date precipitation 0.01 0.06  
Year to date precipitation 11.26 12.42  
Sea Level Pressure  
Sea Level Pressure 30.01 in    
Wind  
Wind Speed 3 mph (ENE)    
Max Wind Speed 13 mph    
Max Gust Speed 17 mph    
Visibility 10 miles    
Events      
T = Trace of Precipitation, MM = Missing Value Source: NWS Daily Summary

Daily Weather History Graph

Daily Weather History Graph

Search for Another Location

Airport or City:

Trip Planner

Search our weather history database for the weather conditions in past years. The results will help you decide how hot, cold, wet, or windy it might be!

Date:

Astronomy

Aug. 04, 2013 Rise Set
Actual Time 6:33 AM MDT 9:06 PM MDT
Civil Twilight 6:00 AM MDT 9:39 PM MDT
Nautical Twilight 5:18 AM MDT 10:20 PM MDT
Astronomical Twilight 4:31 AM MDT 11:07 PM MDT
Moon 4:37 AM MDT (8/4) 7:32 PM MDT (8/4)
Length of Visible Light 15h 38m
Length of Day
14h 32m
Waning Crescent, 4% of the Moon is Illuminated
Aug 4
Waning Crescent
Aug 6
New
Aug 14
First Quarter
Aug 20
Full
Aug 28
Last Quarter

Hourly Weather History & Observations

Time (MDT) Temp. Dew Point Humidity Pressure Visibility Wind Dir Wind Speed Gust Speed Precip Events Conditions
12:51 AM 60.1 °F 43.0 °F 53% 30.02 in 10.0 mi North 5.8 mph - N/A   Clear
1:51 AM 59.0 °F 43.0 °F 55% 30.02 in 10.0 mi North 8.1 mph - N/A   Clear
2:51 AM 57.9 °F 41.0 °F 53% 30.02 in 10.0 mi North 5.8 mph - N/A   Clear
3:51 AM 48.9 °F 37.9 °F 66% 30.05 in 10.0 mi Calm Calm - N/A   Clear
4:51 AM 45.0 °F 39.0 °F 80% 30.06 in 10.0 mi Calm Calm - N/A   Clear
5:51 AM 45.0 °F 37.0 °F 74% 30.06 in 10.0 mi Calm Calm - N/A   Clear
6:51 AM 44.1 °F 37.9 °F 79% 30.07 in 10.0 mi Calm Calm - N/A   Clear
7:51 AM 46.9 °F 39.0 °F 74% 30.07 in 10.0 mi Calm Calm - N/A   Clear
8:51 AM 54.0 °F 42.1 °F 64% 30.07 in 10.0 mi Calm Calm - N/A   Clear
9:51 AM 61.0 °F 43.0 °F 52% 30.06 in 10.0 mi Calm Calm - N/A   Clear
10:51 AM 66.0 °F 43.0 °F 43% 30.04 in 10.0 mi South 3.5 mph - N/A   Clear
11:51 AM 73.9 °F 30.9 °F 21% 30.02 in 10.0 mi Variable 3.5 mph - N/A   Clear
12:51 PM 77.0 °F 28.0 °F 17% 30.01 in 10.0 mi Calm Calm - N/A   Clear
1:51 PM 79.0 °F 28.0 °F 15% 30.00 in 10.0 mi Variable 6.9 mph - N/A   Clear
2:51 PM 80.1 °F 28.0 °F 15% 29.99 in 10.0 mi NNE 4.6 mph - N/A   Clear
3:51 PM 81.0 °F 28.9 °F 15% 29.99 in 10.0 mi SE 9.2 mph - N/A   Clear
4:51 PM 80.1 °F 28.0 °F 15% 29.99 in 10.0 mi South 8.1 mph - N/A   Clear
5:51 PM 80.1 °F 27.0 °F 14% 29.98 in 10.0 mi SSE 9.2 mph - N/A   Clear
6:51 PM 80.1 °F 25.0 °F 13% 29.97 in 10.0 mi Variable 3.5 mph - N/A   Clear
7:51 PM 78.1 °F 28.0 °F 16% 29.96 in 10.0 mi South 4.6 mph - N/A   Clear
8:51 PM 72.0 °F 34.0 °F 25% 29.96 in 10.0 mi Calm Calm - N/A   Clear
9:51 PM 68.0 °F 37.9 °F 33% 29.96 in 10.0 mi NE 4.6 mph - N/A   Clear
10:51 PM 68.0 °F 36.0 °F 31% 29.95 in 10.0 mi NNE 9.2 mph - N/A   Clear
11:51 PM 59.0 °F 41.0 °F 51% 29.96 in 10.0 mi Calm Calm - N/A   Clear